STARLINK-32267, 60363

Orbit data source: Space-Track

STARLINK-32267, 60363 is a payload satellite owned by SpaceX/Seattle (US) in LEO that was launched on Sun, 04 Aug 2024 UTC via an FALCON 9 launch vehicle from the Air Force Western Test Range (AFWTR). Payload-class satellites include a variety of spacecraft equipped with specific instruments for various scientific and technological missions. These include communications satellites like Starlink; space stations such as the ISS; scientific satellites like the Hubble; Earth observation satellites from companies like Planet Labs, Umbra, and HawkEye 360; GPS; miniature CubeSats for education and research; and military/defense satellites.

Loading next visibility...
Identifier
60363, 2024-138J
Orbit
LEO
Last TLE update
13 hours ago
Origin
Manufacturer
SpaceX/Seattle
Mission
Operational Commercial Communications
Bus & Motor
STARLINK V2M, Unknown motor
Mass
730 kg wet, ~700 kg dry
Launch date (UTC)
2024-08-04 (11 months ago)
Launch vehicle
FALCON 9
Launch site
Air Force Western Test Range (AFWTR)
Object type
Payload
Rocket body
Debris
Shape & HBR
Box + 2 Pan, 29 m
Radar Cross Section
33.884 m², Large (>1 m²)

Expand to show TLE details & history

TLE from 13 hours ago
0 STARLINK-32267
1 60363U 24138J   25181.89407729  .00000631  00000-0  33435-4 0  9991
2 60363  53.1614  39.3788 0001031  89.6467 270.4652 15.30197781 52064
Epoch: 2025-06-30T21:27Z
TLE epoch observation values (Epoch: 2025-06-30T21:27:28.277Z)
Latitude
-0.00003°
Longitude
158.31361°
Altitude
476.116 km
Speed
7.629 km/s
True Right ascension
02h 37m 30s
True Declination
0° 00' 00"
Sunlit
Object was in daylight at epoch
Visualization orbit readout
Latitude
42.56511°
Longitude
-160.98725°
Altitude
478.775 km
Speed
7.632 km/s
Apparent Right ascension
07h 34m 19s
Apparent Declination
3° 46' 60"
Sunlit
Object is in daylight
Visualization observer readout
Local Sidereal Time
21:53:17
Azimuth
44.595° NE
Elevation
-35.912°
Doppler factor
1
Orbital elements
Apogee altitude
476.185 km
Perigee altitude
474.771 km
Semi-major axis
6,853.615 km
Eccentricity
0.0001
Inclination
53.1614°
RAAN
39.3788°
Arg. of periapsis
89.6467°
True anomaly
Unknown
Mean anomaly
270.4652°
Eccentric anomaly
Unknown
Mean motion
3.82528 °/min
Orbital period
94.11 mins
BSTAR
0.000033435
Loading maneuver chart data...
Loading SW <> Apogee altitude chart data...
Loading historical data...
Loading historical data...
Loading historical data...
Loading historical data...
Loading historical data...
Loading historical data...
Loading historical data...

STARLINK-32267 Visibility forecast

Observer location: undefined°, undefined°

Span
Click to sort rows by Start time (UTC) header in descending order
Start Az.
Max El. time (UTC)
Max El. Az.
Max El.
End time (UTC)
End Az.
5 mins2025-07-01 16:25:52.680Z184.495° SSW2025-07-01 16:27:52.680Z142.047° SSE25.582°2025-07-01 16:30:52.680Z74.854° E
5 mins2025-07-01 18:03:52.680Z271.689° WNW2025-07-01 18:05:52.680Z321.778° NNW29.511°2025-07-01 18:08:52.680Z31.586° NE
5 mins2025-07-01 23:00:52.680Z338.973° N2025-07-01 23:02:52.680Z27.004° NE26.415°2025-07-01 23:05:52.680Z90.213° ESE
5 mins2025-07-02 00:38:52.680Z282.459° WNW2025-07-02 00:40:52.680Z228.055° WSW30.521°2025-07-02 00:43:52.680Z162.068° S
|